Regional Weather Roundup
Issued by NWS

Home | Current Version | Previous Version | Graphics & Text | Print | Product List | Glossary On
Versions: 1 2 3 4 5 6 7 8 9 10 11 12 13 14 15 16 17 18 19 20 21 22 23 24 25 26 27 28 29 30 31 32 33 34 35 36 37 38 39 40 41 42 43 44 45 46 47 48 49 50
000
ASUS44 KMEG 021200
RWRTN
TENNESSEE HOURLY STATE WEATHER ROUNDUP
NATIONAL WEATHER SERVICE MEMPHIS TN
700 AM CDT TUE SEP 02 2014

TNZ002-004-019-021-049-052-054-088>092-021300-
WEST TENNESSEE

CITY           SKY/WX    TMP DP  RH WIND       PRES   REMARKS
MEMPHIS INTL   MOCLDY    77  72  84 S6        30.04R
NWS MEMPHIS      N/A     75 N/A N/A MISG        N/A
JACKSON        MOCLDY    74  71  91 S8        30.02F
DYERSBURG      MOCLDY    75  64  69 S5        30.01R
UNION CITY     CLEAR     73  72  94 SW5       29.99R
PARIS          PTCLDY    72  70  94 S7        30.01S
LEXINGTON      CLEAR     70  70 100 CALM      30.04S
SAVANNAH       PTCLDY    73  73 100 S6        30.07S
$$

TNZ008-025-027-028-033-062-065-066-021300-
NORTH MIDDLE TENNESSEE

CITY           SKY/WX    TMP DP  RH WIND       PRES   REMARKS
NASHVILLE      MOCLDY    73  70  90 S6        30.06S
CLARKSVILLE    PTCLDY    74  70  87 S10       30.00F
COOKEVILLE     PTCLDY    70  70 100 SW3       30.10R
CROSSVILLE     PTCLDY    72  67  84 CALM      30.15S
$$

TNZ061-075-076-078-094-096-097-021300-
SOUTH MIDDLE TENNESSEE

CITY           SKY/WX    TMP DP  RH WIND       PRES   REMARKS
TULLAHOMA      CLEAR     70  66  88 CALM      30.12R
WINCHESTER     CLEAR     72  70  94 CALM      30.11S
SHELBYVILLE    CLEAR     73  72  94 S3        30.10R
$$

TNZ017-018-042-046-047-021300-
NORTHEAST TENNESSEE

CITY           SKY/WX    TMP DP  RH WIND       PRES   REMARKS
TRI CITIES     PTSUNNY   70  66  87 CALM      30.14R
ELIZABETHTON   MOSUNNY   66  64  94 CALM      30.16R
$$

TNZ012-013-036-069-073-074-021300-
CENTRAL EAST TENNESSEE

CITY           SKY/WX    TMP DP  RH WIND       PRES   REMARKS
KNOXVILLE      MOCLDY    73  70  90 W3        30.11R
OAK RIDGE      CLEAR     74  70  87 CALM      30.12R
GATLINBURG     PTSUNNY   66  64  94 CALM      30.12R
$$

TNZ083-085-099-021300-
SOUTHEAST TENNESSEE

CITY           SKY/WX    TMP DP  RH WIND       PRES   REMARKS
CHATTANOOGA    MOCLDY    74  69  85 CALM      30.10S
$$

SKY/WX REPORTED AS FAIR MEANS FEW OR NO CLOUDS BELOW
12 THOUSAND FEET.



USA.gov is the U.S. government's official web portal to all federal, state and local government web resources and services.